Home   Weather   Longyearbyen   Past weeks

Flag for Norway Past Weather in Longyearbyen, Svalbard, Norway — Yesterday and Last 2 Weeks

45 °F

Partly cloudy.

Feels Like: 38 °F
Forecast: 35 / 40 °F
Wind: 13 mph from Southwest

Location: Svalbard Lufthavn

Current Time: Oct 23, 2016 at 8:10:17 PM

Latest Report: Oct 23, 2016 at 6:50 PM

Visibility: N/A

Pressure: 30.42 "Hg

Humidity: 76%

Dew Point: 37 °F

Location of LongyearbyenLocation

Past Weather in Longyearbyen — Graph


Longyearbyen Temperature Yesterday

Maximum temperature yesterday: 45 °F (at 12:50 AM)
Minimum temperature yesterday: 37 °F (at 5:50 PM)
Average temperature yesterday: 41 °F

High & Low Weather Summary for the Past Weeks

High48 °F (Oct 20, 1:20 PM)100% (Oct 11, 12:50 AM)30.42 "Hg (Oct 11, 12:50 AM)
Low25 °F (Oct 15, 3:50 PM)59% (Oct 16, 6:50 AM)29.59 "Hg (Oct 15, 6:50 AM)
Average39 °F82%30.02 "Hg
* Reported Oct 8 6:50 PM — Oct 23 6:50 PM, Longyearbyen, Weather by CustomWeather, © 2016

Note: Actual official high and low records may vary slightly from our data, if they occured in-between our weather recording intervals... More about our weather records


Longyearbyen Weather History for the Previous 24 Hours

Scroll right to see more
Time TempWeatherWind HumidityBarometerVisibility
6:50 PM
Sun, Oct 23
45 °FPartly cloudy.13 mph76%30.42 "HgN/A
5:50 PM45 °FPassing clouds.13 mph76%30.42 "HgN/A
4:50 PM45 °FPartly cloudy.16 mph76%30.39 "HgN/A
3:50 PM45 °FPartly cloudy.16 mph76%30.42 "HgN/A
2:50 PM46 °FPartly cloudy.18 mph71%30.39 "HgN/A
1:50 PM45 °FLight rain. Partly sunny.18 mph76%30.39 "HgN/A
12:50 PM45 °FLight rain. Overcast.18 mph81%30.39 "HgN/A
11:50 AM46 °FDrizzle. Overcast.18 mph71%30.39 "HgN/A
10:50 AM45 °FOvercast.18 mph76%30.39 "HgN/A
9:50 AM45 °FLight rain. Overcast.9 mph81%30.39 "HgN/A
8:50 AM45 °FLight rain. Passing clouds.15 mph81%30.36 "HgN/A
6:50 AM43 °FLight rain. Partly cloudy.5 mph87%30.36 "HgN/A
5:50 AM39 °FLight rain. Partly cloudy.2 mph93%30.36 "HgN/A
3:50 AM39 °FRain. Partly cloudy.2 mph93%30.33 "HgN/A
2:50 AM37 °FLight rain. Partly cloudy.3 mph93%30.33 "HgN/A
1:50 AM37 °FLight rain. Partly cloudy.5 mph93%30.33 "HgN/A
12:50 AM37 °FLight rain. Passing clouds.12 mph93%30.33 "HgN/A
11:50 PM
Sat, Oct 22
37 °FLight rain. Partly cloudy.9 mph93%30.33 "HgN/A
10:50 PM37 °FLight rain. Partly cloudy.6 mph93%30.36 "HgN/A
9:50 PM37 °FLight rain. Passing clouds.2 mph93%30.33 "HgN/A
8:50 PM37 °FLight rain. Passing clouds.6 mph93%30.33 "HgN/A
8:20 PM37 °FPassing clouds.9 mph93%30.33 "HgN/A
Weather by CustomWeather, © 2016

See weather overviewHow to use our weather pages